Regional Weather Roundup
Issued by NWS Nashville, TN

Home | Current Version | Previous Version | Text Only | Print | Product List | Glossary On
Versions: 1 2 3 4 5 6 7 8 9 10 11 12 13 14 15 16 17 18 19 20 21 22 23 24 25 26 27 28 29 30 31 32 33 34 35 36 37 38 39 40 41 42 43 44 45 46 47 48 49 50
000
ASUS44 KOHX 280215
RWROHX
MIDDLE TENNESSEE HOURLY WEATHER ROUNDUP
NATIONAL WEATHER SERVICE NASHVILLE TN
900 PM CDT WED MAY 27 2015

NOTE: "FAIR" INDICATES FEW OR NO CLOUDS BELOW 12,000 FEET WITH
NO SIGNIFICANT WEATHER AND/OR OBSTRUCTIONS TO VISIBILITY.

* THESE REPORTS ARE NOT UNDER NWS QUALITY CONTROL AND MAY NOT
  REPORT WEATHER SUCH AS PRECIPITATION AND FOG.


TNZ005>011-023>034-057-059-062>066-078-080-280300
...NORTHERN MIDDLE TENNESSEE...

CITY           SKY/WX    TMP DP  RH WIND       PRES   REMARKS
CASTALIAN SPRG   N/A     68  68 100 S2        29.95
CLARKSVILLE    CLOUDY    70  67  90 S5        30.15R
CROSSVILLE     CLOUDY    68  63  84 SW5       30.24R
JOELTON*         N/A     70  68  94 CALM      30.09
LIVINGSTON     CLOUDY    68  63  84 SW3       30.21
NASHVILLE      CLOUDY    69  68  96 CALM      30.18R
OLD HICKORY*     N/A     70  70 100 CALM      29.80
PORTLAND       CLOUDY    66  66 100 CALM      30.15S
ROCKWOOD       CLOUDY    69  67  93 SW5       30.21R
SMYRNA         CLOUDY    69  68  97 CALM      30.19R
SPARTA         PTCLDY    70  66  88 CALM      30.19R
$$
TNZ056-058-060-061-075>077-079-093>097-280300
...SOUTHERN MIDDLE TENNESSEE...

CITY           SKY/WX    TMP DP  RH WIND       PRES   REMARKS
COLUMBIA       CLOUDY    68  66  94 S7        30.17R
LEWISBURG      CLOUDY    68  67  96 S6        30.18R
MANCHESTER*      N/A     70   3   7 CALM      30.13
MCMINNVILLE    CLOUDY    70  68  94 CALM      30.21R
SHELBYVILLE    MOCLDY    70  68  94 CALM      30.21R
TULLAHOMA      MOCLDY    70  66  88 CALM      30.22R
WINCHESTER     CLOUDY    70  66  88 S7        30.22R
$$


...KEY TO REMARKS...
VSB - VISIBILITY IN MILES
WCI - WIND CHILL INDEX
HX  - HEAT INDEX



USA.gov is the U.S. government's official web portal to all federal, state and local government web resources and services.